Previsão horária em Abramow

Hoje, 16 Maio, Domingo

Tempo Temperatura Precipitação Vento Pressão Humidade
00:00 +10°C° 0 mm 3 m/s 741 mmHg 87%
01:00 +10°C° 0 mm 3 m/s 741 mmHg 88%
02:00 +10°C° 0.3 mm 3 m/s 741 mmHg 90%
03:00 +10°C° 0.3 mm 3 m/s 740 mmHg 91%
04:00 +10°C° 0.3 mm 3 m/s 740 mmHg 93%
05:00 +12°C° 0.1 mm 4 m/s 740 mmHg 90%
06:00 +13°C° 0.1 mm 4 m/s 740 mmHg 87%
07:00 +14°C° 0 mm 4 m/s 740 mmHg 84%
08:00 +15°C° 0.1 mm 5 m/s 740 mmHg 78%
09:00 +16°C° 0.1 mm 5 m/s 740 mmHg 73%
10:00 +17°C° 0.1 mm 5 m/s 740 mmHg 67%
11:00 +19°C° 0.3 mm 5 m/s 740 mmHg 66%
12:00 +19°C° 0.3 mm 5 m/s 739 mmHg 64%
13:00 +20°C° 0.3 mm 5 m/s 739 mmHg 63%
14:00 +19°C° 0.5 mm 5 m/s 739 mmHg 69%
15:00 +18°C° 0.5 mm 4 m/s 739 mmHg 74%
16:00 +17°C° 0.5 mm 4 m/s 739 mmHg 80%
17:00 +14°C° 0.3 mm 3 m/s 739 mmHg 84%
18:00 +13°C° 0.3 mm 3 m/s 739 mmHg 88%
19:00 +13°C° 0.3 mm 2 m/s 739 mmHg 92%
20:00 +12°C° 0 mm 2 m/s 739 mmHg 93%
21:00 +12°C° 0 mm 2 m/s 739 mmHg 94%
22:00 +10°C° 0 mm 2 m/s 739 mmHg 94%
23:00 +10°C° 0 mm 2 m/s 740 mmHg 95%

Amanhã, 17 Maio, Segunda-feira

Tempo Temperatura Precipitação Vento Pressão Humidade
00:00 +10°C° 0 mm 2 m/s 740 mmHg 95%
01:00 +9°C° 0 mm 2 m/s 740 mmHg 96%
02:00 +9°C° 0 mm 2 m/s 740 mmHg 95%
03:00 +9°C° 0 mm 2 m/s 740 mmHg 95%
04:00 +8°C° 0 mm 2 m/s 740 mmHg 95%
05:00 +11°C° 0 mm 1 m/s 740 mmHg 89%
06:00 +13°C° 0 mm 1 m/s 740 mmHg 84%
07:00 +15°C° 0 mm 1 m/s 740 mmHg 79%
08:00 +16°C° 0 mm 2 m/s 740 mmHg 73%
09:00 +17°C° 0 mm 2 m/s 739 mmHg 66%
10:00 +19°C° 0 mm 2 m/s 739 mmHg 60%
11:00 +20°C° 0 mm 2 m/s 739 mmHg 57%
12:00 +20°C° 0 mm 2 m/s 739 mmHg 53%
13:00 +21°C° 0 mm 2 m/s 738 mmHg 49%
14:00 +21°C° 0 mm 2 m/s 738 mmHg 50%
15:00 +21°C° 0 mm 2 m/s 738 mmHg 50%
16:00 +21°C° 0 mm 2 m/s 737 mmHg 50%
17:00 +19°C° 0 mm 2 m/s 737 mmHg 59%
18:00 +18°C° 0 mm 2 m/s 737 mmHg 67%
19:00 +16°C° 0 mm 3 m/s 737 mmHg 76%
20:00 +14°C° 0 mm 3 m/s 737 mmHg 79%
21:00 +13°C° 0 mm 3 m/s 737 mmHg 82%
22:00 +13°C° 0 mm 2 m/s 737 mmHg 85%
23:00 +11°C° 0 mm 3 m/s 737 mmHg 88%

Depois de amanhã, 18 Maio, Terça-feira

Tempo Temperatura Precipitação Vento Pressão Humidade
00:00 +11°C° 0 mm 4 m/s 737 mmHg 91%
01:00 +11°C° 0 mm 4 m/s 737 mmHg 94%
02:00 +10°C° 0 mm 5 m/s 737 mmHg 94%
03:00 +10°C° 0 mm 5 m/s 737 mmHg 94%
04:00 +9°C° 0 mm 5 m/s 737 mmHg 94%
05:00 +10°C° 0 mm 5 m/s 737 mmHg 94%
06:00 +10°C° 0 mm 5 m/s 737 mmHg 93%
07:00 +10°C° 0 mm 5 m/s 738 mmHg 93%
08:00 +10°C° 0.2 mm 5 m/s 738 mmHg 92%
09:00 +10°C° 0.2 mm 5 m/s 739 mmHg 92%
10:00 +10°C° 0.2 mm 5 m/s 739 mmHg 91%
11:00 +10°C° 0.3 mm 5 m/s 739 mmHg 91%
12:00 +10°C° 0.3 mm 5 m/s 740 mmHg 91%
13:00 +10°C° 0.3 mm 5 m/s 740 mmHg 91%
14:00 +12°C° 0.2 mm 5 m/s 740 mmHg 89%
15:00 +12°C° 0.2 mm 5 m/s 740 mmHg 87%
16:00 +13°C° 0.2 mm 5 m/s 740 mmHg 85%
17:00 +13°C° 0 mm 5 m/s 741 mmHg 86%
18:00 +12°C° 0 mm 5 m/s 741 mmHg 87%
19:00 +12°C° 0 mm 5 m/s 741 mmHg 87%
20:00 +10°C° 0 mm 5 m/s 741 mmHg 90%
21:00 +11°C° 0 mm 4 m/s 741 mmHg 92%
22:00 +10°C° 0 mm 4 m/s 742 mmHg 94%
23:00 +10°C° 0 mm 4 m/s 742 mmHg 94%

19 Maio, Quarta-feira

Tempo Temperatura Precipitação Vento Pressão Humidade
00:00 +8°C° 0 mm 4 m/s 742 mmHg 95%
01:00 +9°C° 0 mm 3 m/s 742 mmHg 95%
02:00 +9°C° 0 mm 3 m/s 742 mmHg 96%
03:00 +8°C° 0 mm 3 m/s 742 mmHg 96%
04:00 +8°C° 0 mm 3 m/s 742 mmHg 97%
05:00 +13°C° 0 mm 5 m/s 743 mmHg 76%
06:00 +12°C° 0 mm 5 m/s 743 mmHg 82%
07:00 +10°C° 0 mm 5 m/s 743 mmHg 87%
08:00 +12°C° 0.1 mm 5 m/s 743 mmHg 82%
09:00 +13°C° 0.1 mm 5 m/s 743 mmHg 76%
10:00 +14°C° 0.1 mm 5 m/s 743 mmHg 70%
11:00 +15°C° 0.1 mm 6 m/s 743 mmHg 63%
12:00 +15°C° 0.1 mm 5 m/s 743 mmHg 64%
13:00 +15°C° 0.1 mm 5 m/s 743 mmHg 65%
14:00 +13°C° 0.1 mm 4 m/s 743 mmHg 79%
15:00 +14°C° 0.1 mm 4 m/s 743 mmHg 72%
16:00 +17°C° 0.1 mm 3 m/s 742 mmHg 64%
17:00 +14°C° 0.3 mm 3 m/s 742 mmHg 71%
18:00 +13°C° 0.3 mm 3 m/s 742 mmHg 79%
19:00 +11°C° 0.3 mm 3 m/s 742 mmHg 86%
20:00 +11°C° 0.1 mm 3 m/s 743 mmHg 88%
21:00 +11°C° 0.1 mm 3 m/s 743 mmHg 90%
22:00 +10°C° 0.1 mm 3 m/s 743 mmHg 92%
23:00 +10°C° 0.3 mm 3 m/s 743 mmHg 93%

20 Maio, Quinta-feira

Tempo Temperatura Precipitação Vento Pressão Humidade
00:00 +10°C° 0.3 mm 3 m/s 742 mmHg 93%
01:00 +10°C° 0.3 mm 3 m/s 742 mmHg 94%
02:00 +10°C° 1.2 mm 3 m/s 742 mmHg 95%
03:00 +9°C° 1.2 mm 3 m/s 742 mmHg 96%
04:00 +9°C° 1.2 mm 3 m/s 742 mmHg 97%
05:00 +9°C° 2.4 mm 3 m/s 743 mmHg 96%
06:00 +7°C° 2.4 mm 4 m/s 743 mmHg 95%
07:00 +7°C° 2.4 mm 4 m/s 743 mmHg 95%
08:00 +7°C° 0.6 mm 4 m/s 744 mmHg 92%
09:00 +8°C° 0.6 mm 4 m/s 744 mmHg 90%
10:00 +8°C° 0.6 mm 4 m/s 744 mmHg 87%
11:00 +10°C° 0.6 mm 4 m/s 744 mmHg 85%
12:00 +10°C° 0.6 mm 4 m/s 744 mmHg 83%
13:00 +11°C° 0.6 mm 3 m/s 745 mmHg 82%
14:00 +11°C° 0.2 mm 4 m/s 745 mmHg 79%
15:00 +12°C° 0.2 mm 4 m/s 744 mmHg 77%
16:00 +12°C° 0.2 mm 4 m/s 744 mmHg 74%
17:00 +11°C° 0.1 mm 4 m/s 745 mmHg 79%
18:00 +10°C° 0.1 mm 3 m/s 745 mmHg 84%
19:00 +10°C° 0.1 mm 3 m/s 745 mmHg 89%
20:00 +9°C° 0 mm 3 m/s 745 mmHg 89%
21:00 +9°C° 0 mm 3 m/s 745 mmHg 90%
22:00 +9°C° 0 mm 2 m/s 745 mmHg 90%
23:00 +9°C° 0.1 mm 3 m/s 746 mmHg 91%

21 Maio, Sexta-feira

Tempo Temperatura Precipitação Vento Pressão Humidade
00:00 +8°C° 0.1 mm 3 m/s 746 mmHg 93%
01:00 +8°C° 0.1 mm 3 m/s 746 mmHg 94%
02:00 +7°C° 0 mm 3 m/s 746 mmHg 94%
03:00 +7°C° 0 mm 3 m/s 746 mmHg 95%
04:00 +5°C° 0 mm 3 m/s 746 mmHg 96%
05:00 +6°C° 0 mm 4 m/s 746 mmHg 92%
06:00 +7°C° 0 mm 4 m/s 747 mmHg 88%
07:00 +9°C° 0 mm 5 m/s 747 mmHg 84%
08:00 +10°C° 0.1 mm 5 m/s 747 mmHg 78%
09:00 +12°C° 0.1 mm 5 m/s 747 mmHg 73%
10:00 +11°C° 0.1 mm 6 m/s 747 mmHg 67%
11:00 +13°C° 0.1 mm 5 m/s 747 mmHg 64%
12:00 +13°C° 0.1 mm 5 m/s 747 mmHg 61%
13:00 +13°C° 0.1 mm 5 m/s 747 mmHg 57%
14:00 +13°C° 0 mm 5 m/s 747 mmHg 56%
15:00 +14°C° 0 mm 5 m/s 747 mmHg 55%
16:00 +14°C° 0 mm 5 m/s 747 mmHg 53%
17:00 +12°C° 0 mm 4 m/s 747 mmHg 61%
18:00 +11°C° 0 mm 3 m/s 747 mmHg 68%
19:00 +9°C° 0 mm 2 m/s 747 mmHg 76%
20:00 +9°C° 0 mm 2 m/s 748 mmHg 77%
21:00 +8°C° 0 mm 2 m/s 748 mmHg 77%
22:00 +7°C° 0 mm 2 m/s 748 mmHg 77%
23:00 +7°C° 0 mm 2 m/s 748 mmHg 79%
Mostrar mais

Necessitamos do seu Consentimento

A Meteoprog e os seus Fornecedores de Serviços podem armazenar e aceder a dados pessoais como cookies, identificadores do dispositivo ou outras tecnologias semelhantes existentes no seu dispositivo e processar estes dados para personalizar conteúdos e anúncios, assim como funcionalidades nas redes sociais e análise de tráfego.

  • Armazenar e/ou aceder a informações no seu dispositivo

    Os cookies, identificadores do dispositivo ou outras informações podem ser armazenados ou acedidos no seu dispositivo, para os fins acima indicados.

  • Anúncios e conteúdos personalizados, medição de anúncios e conteúdos, dados sobre o público-alvo e desenvolvimento de produtos

    Os anúncios e os conteúdos podem ser personalizados com base num perfil. Podem ser adicionados dados adicionais para uma maior personalização dos anúncios e dos conteúdos. A eficácia dos anúncios e dos conteúdos pode ser medida. Podem ser obtidas informações sobre o público que visualizou os anúncios e os conteúdos. Estes dados podem ser usados para desenvolver ou melhorar sistemas, softwares ou a experiência do utilizador.

Ao clicar em "Eu concordo”, permitirá o uso de cookies, identificadores do dispositivo e web beacons mencionados ou outras tecnologias semelhantes. As configurações do navegador do seu dispositivo podem ser alteradas.

Para certos fins, podem ser invocados interesses legítimos ao invés de consentimento. Pode ler mais informação sobre este assunto na nossa Política de Privacidade e Cookies.